"2009-06-08 00:00:00",956466,3.2,122.6,4.927,0.336,9,104.3284,10.35,11.33,61.57,0,110.4,13.36,11.14,84.6
"2009-06-08 00:00:30",956467,3.699,123.5,6.738,0.296,9.4,104.3263,10.35,11.34,61.9,0,110.4,13.36,11.14,85.5
"2009-06-08 00:01:00",956468,5.151,127.8,9.31,1.185,12.31,104.3281,10.35,11.6,62.07,0,110.4,13.33,11.14,89.8
"2009-06-08 00:01:30",956469,4.891,131.1,7.142,1.368,12.51,104.3249,10.34,11.58,62.1,0,110.4,13.33,11.13,93.1
"2009-06-08 00:02:00",956470,4.217,119.3,6.995,1.438,10.3,104.324,10.34,11.48,62.04,0,110.4,13.33,11.13,81.3
"2009-06-08 00:02:30",956471,4.479,109.5,7.543,0.875,9.54,104.3199,10.33,11.49,62.15,0,110.4,13.33,11.12,71.5
"2009-06-08 00:03:00",956472,5.038,113.9,6.669,1.195,9.74,104.3152,10.32,11.49,62.07,0,110.4,13.33,11.11,75.9
"2009-06-08 00:03:30",956473,4.135,113.9,5.908,0.274,8.26,104.3137,10.32,11.35,62.04,0,110.4,13.36,11.10,75.9
"2009-06-08 00:04:00",956474,3.727,116,6.037,0.202,8.61,104.3106,10.31,11.35,62.12,0,110.4,13.36,11.10,78.0
"2009-06-08 00:04:30",956475,3.279,114.7,10.39,0.301,8.85,104.3196,10.33,11.38,62.25,0,110.4,13.36,11.12,76.7
"2009-06-08 00:05:00",956476,3.239,123.9,6.351,0.294,9.24,104.3274,10.35,11.37,62.72,0,110.4,13.36,11.14,85.9
"2009-06-08 00:05:30",956477,3.534,116.9,7.666,0.998,10.56,104.3317,10.36,11.47,62.49,0,110.4,13.33,11.15,78.9
"2009-06-08 00:06:00",956478,4.988,129.4,7.222,1.178,13.29,104.3308,10.36,11.65,62.45,0,110.4,13.32,11.15,91.4
"2009-06-08 00:06:30",956479,5.615,127.5,8.68,1.379,13.21,104.3311,10.36,11.64,62.62,0,110.4,13.32,11.15,89.5
"2009-06-08 00:07:00",956480,5.078,120.4,8.49,1.423,12.04,104.3311,10.36,11.64,62.1,0,110.4,13.32,11.15,82.4
"2009-06-08 00:07:30",956481,4.239,128.5,8.64,1.293,10.31,104.3296,10.36,11.4,60.75,0,110.4,13.32,11.15,90.5
"2009-06-08 00:08:00",956482,3.343,122.4,1.663,0.17,8.53,104.3305,10.36,11.39,59.48,0,110.4,13.35,11.15,84.4
"2009-06-08 00:08:30",956483,2.591,122.8,5.445,0.409,8.79,104.329,10.36,11.39,58.93,0,110.4,13.35,11.14,84.8
"2009-06-08 00:09:00",956484,2.114,133.3,3.72,0.176,9.12,104.3293,10.36,11.39,58.83,0,110.4,13.35,11.14,95.3
"2009-06-08 00:09:30",956485,2.632,126.6,4.206,0.33,9.62,104.3302,10.36,11.47,59.93,0,110.4,13.35,11.15,88.6
"2009-06-08 00:10:00",956486,5.569,142.4,7.221,1.621,13.47,104.3311,10.36,11.65,59.41,0,110.4,13.32,11.15,104.4
"2009-06-08 00:10:30",956487,6.03,141.4,4.818,1.239,14.02,104.3311,10.36,11.69,58.89,0,110.4,13.31,11.15,103.4
"2009-06-08 00:11:00",956488,6.434,143.6,7.221,1.299,13.47,104.3308,10.36,11.66,58.7,0,110.4,13.31,11.15,105.6
"2009-06-08 00:11:30",956489,5.357,121.8,12.55,1.392,10.76,104.3271,10.35,11.49,59.14,0,110.4,13.31,11.14,83.8
"2009-06-08 00:12:00",956490,3.979,117.8,2.722,0.188,8.91,104.3109,10.31,11.43,59.73,0,110.4,13.35,11.10,79.8
"2009-06-08 00:12:30",956491,3.551,118,3.892,0.242,8.89,104.2996,10.28,11.38,60.03,0,110.4,13.35,11.07,80.0
"2009-06-08 00:13:00",956492,3.903,131.8,5.249,0.407,9.19,104.3031,10.29,11.36,60.08,0,110.4,13.35,11.08,93.8
"2009-06-08 00:13:30",956493,4.81,141.9,5.148,1.1,10.94,104.3052,10.29,11.43,60.42,0,110.4,13.32,11.08,103.9
"2009-06-08 00:14:00",956494,6.053,147,6.91,1.312,13.66,104.2987,10.28,11.59,60.74,0,110.4,13.32,11.07,109.0
"2009-06-08 00:14:30",956495,6.073,147.2,6.419,0.942,13.55,104.2916,10.26,11.53,61.23,0,110.4,13.32,11.05,109.2
"2009-06-08 00:15:00",956496,5.526,146.8,7.754,1.284,12.52,104.2793,10.23,11.59,61.75,0,110.4,13.32,11.02,108.8
"2009-06-08 00:15:30",956497,3.957,143.8,6.094,1.373,10.26,104.2819,10.24,11.45,61.76,0,110.4,13.32,11.02,105.8
"2009-06-08 00:16:00",956498,3.134,142.6,4.843,0.243,8.84,104.2843,10.24,11.3,61.46,0,110.4,13.36,11.03,104.6
"2009-06-08 00:16:30",956499,1.952,138.7,4.887,0.438,8.96,104.2866,10.25,11.28,61,0,110.4,13.36,11.03,100.7
"2009-06-08 00:17:00",956500,2.219,147.6,4.094,0.229,9.17,104.2861,10.25,11.27,60.67,0,110.4,13.36,11.03,109.6
"2009-06-08 00:17:30",956501,2.832,142.3,2.303,0.267,9.63,104.2794,10.23,11.26,59.33,0,110.4,13.36,11.02,104.3
"2009-06-08 00:18:00",956502,4.414,151.5,7.448,1.404,12.59,104.2696,10.2,11.43,56.82,0,110.4,13.33,10.99,113.5
"2009-06-08 00:18:30",956503,4.829,156.7,6.019,1.298,12.88,104.261,10.18,11.45,54.83,0,110.4,13.33,10.97,118.7
"2009-06-08 00:19:00",956504,3.885,156.3,7.701,1.284,11.81,104.2596,10.18,11.39,55.35,0,110.4,13.32,10.97,118.3
"2009-06-08 00:19:30",956505,4.426,165.1,7.836,1.298,12.17,104.2613,10.18,11.47,57.1,0,110.4,13.32,10.97,127.1
"2009-06-08 00:20:00",956506,3.93,163,6.718,1.363,11,104.2613,10.18,11.35,56.66,0,110.3,13.32,10.97,125.0
"2009-06-08 00:20:30",956507,2.621,160.5,2.498,0.227,8.4,104.2613,10.18,11.21,56.95,0,110.4,13.36,10.97,122.5
"2009-06-08 00:21:00",956508,2.647,161.5,2.121,0.1,8.48,104.2619,10.18,11.18,56.62,0,110.3,13.36,10.97,123.5
"2009-06-08 00:21:30",956509,2.449,162.4,2.904,0.087,8.94,104.2625,10.19,11.17,55.83,0,110.3,13.36,10.97,124.4
"2009-06-08 00:22:00",956510,2.479,170.3,5.599,0.52,9.68,104.2625,10.19,11.19,55.24,0,110.3,13.34,10.97,132.3
"2009-06-08 00:22:30",956511,3.315,184.6,4.342,1.341,11.39,104.2622,10.18,11.22,55.22,0,110.3,13.33,10.97,146.6
"2009-06-08 00:23:00",956512,3.723,198.1,6.147,1.276,13.34,104.2622,10.18,11.4,56.06,0,110.3,13.33,10.97,160.1
"2009-06-08 00:23:30",956513,2.095,187.8,4.8,0.552,10.53,104.2614,10.18,11.31,56.71,0,110.3,13.34,10.97,149.8
"2009-06-08 00:24:00",956514,3.915,198.5,7.576,1.289,13.05,104.2608,10.18,11.36,57.15,0,110.3,13.33,10.97,160.5
"2009-06-08 00:24:30",956515,2.93,194.5,8.07,1.19,11.47,104.26,10.18,11.27,57.72,0,110.4,13.32,10.97,156.5
"2009-06-08 00:25:00",956516,3.192,197.3,11.12,1.401,11.21,104.258,10.17,11.33,57.92,0,110.3,13.32,10.96,159.3
"2009-06-08 00:25:30",956517,2.421,195.6,2.459,0.198,8.36,104.26,10.18,11.18,58.3,0,110.3,13.36,10.97,157.6
"2009-06-08 00:26:00",956518,2.25,196.7,3.412,0.202,8.37,104.2611,10.18,11.16,58.76,0,110.3,13.36,10.97,158.7
"2009-06-08 00:26:30",956519,1.973,202.9,3.658,0.089,8.57,104.2608,10.18,11.17,59.01,0,110.3,13.36,10.97,164.9
"2009-06-08 00:27:00",956520,2.526,207.5,7.504,1.132,10.11,104.262,10.18,11.32,59.21,0,110.3,13.33,10.97,169.5
"2009-06-08 00:27:30",956521,2.774,210.3,6.797,1.139,10.02,104.2625,10.19,11.25,59.25,0,110.3,13.33,10.97,172.3
"2009-06-08 00:28:00",956522,2.482,202.5,8.06,1.039,10.47,104.2625,10.19,11.22,59.41,0,110.3,13.33,10.97,164.5
"2009-06-08 00:28:30",956523,3.529,205.8,6.949,1.356,11.6,104.262,10.18,11.25,59.57,0,110.3,13.33,10.97,167.8
"2009-06-08 00:29:00",956524,2.987,208.5,8.33,1.167,10.96,104.2625,10.19,11.4,59.7,0,110.3,13.34,10.97,170.5
"2009-06-08 00:29:30",956525,3.791,208.9,6.892,1.364,10.87,104.2625,10.19,11.25,59.61,0,110.4,13.33,10.97,170.9
"2009-06-08 00:30:00",956526,2.908,208.1,6,1.081,9.52,104.2625,10.19,11.34,59.67,0,110.3,13.34,10.97,170.1
"2009-06-08 00:30:30",956527,2.264,203.1,3.687,0.085,8.2,104.2625,10.19,11.2,59.47,0,110.3,13.37,10.97,165.1
"2009-06-08 00:31:00",956528,1.985,206.1,3.409,0.106,8.21,104.2625,10.19,11.21,59.3,0,110.3,13.37,10.97,168.1
"2009-06-08 00:31:30",956529,2.131,211.9,2.79,0.098,8.45,104.2665,10.2,11.2,59.31,0,110.3,13.37,10.98,173.9
"2009-06-08 00:32:00",956530,2.055,208.9,4.221,0.135,8.72,104.2901,10.26,11.21,59.36,0,110.3,13.37,11.04,170.9
"2009-06-08 00:32:30",956531,1.956,206.5,3.531,0.544,8.96,104.2963,10.27,11.24,59.27,0,110.3,13.34,11.06,168.5
"2009-06-08 00:33:00",956532,2.917,208.2,5.911,1.29,11.3,104.2963,10.27,11.42,59.39,0,110.3,13.34,11.06,170.2
"2009-06-08 00:33:30",956533,2.008,195.4,5.335,1.148,9.97,104.3042,10.29,11.28,59.42,0,110.3,13.34,11.08,157.4
"2009-06-08 00:34:00",956534,2.689,214.5,9.91,1.346,11.27,104.3248,10.34,11.45,59.62,0,110.3,13.34,11.13,176.5
"2009-06-08 00:34:30",956535,1.322,199.9,6.575,0.188,9.07,104.3296,10.36,11.31,58.94,0,110.3,13.37,11.15,161.9
"2009-06-08 00:35:00",956536,1.432,196,4.531,0.195,8.62,104.329,10.36,11.33,57.91,0,110.3,13.37,11.14,158.0
"2009-06-08 00:35:30",956537,2.242,188.3,6.802,0.884,9.27,104.3508,10.41,11.43,56.86,0,110.3,13.34,11.20,150.3
"2009-06-08 00:36:00",956538,3.425,206.8,9.3,1.227,12.18,104.3558,10.42,11.59,55.8,0,110.3,13.34,11.21,168.8
"2009-06-08 00:36:30",956539,2.29,203,9.61,1.233,9.96,104.3573,10.43,11.46,55.97,0,110.4,13.34,11.22,165.0
"2009-06-08 00:37:00",956540,1.63,199.6,3.861,0.294,8.03,104.3815,10.49,11.43,56.01,0,110.4,13.37,11.28,161.6
"2009-06-08 00:37:30",956541,1.851,198.1,6.823,0.173,8,104.3758,10.48,11.48,54.38,0,110.4,13.37,11.26,160.1
"2009-06-08 00:38:00",956542,1.908,190.1,6.004,0.283,8.21,104.3888,10.51,11.49,53.48,0,110.4,13.37,11.30,152.1
"2009-06-08 00:38:30",956543,2.363,187.5,3.503,0.111,8.55,104.399,10.53,11.51,52.56,0,110.4,13.37,11.32,149.5
"2009-06-08 00:39:00",956544,2.736,182,2.55,0.109,8.87,104.4031,10.55,11.54,51.61,0,110.4,13.37,11.33,144.0
"2009-06-08 00:39:30",956545,2.914,180.2,1.852,0.105,9.16,104.4293,10.61,11.56,50.1,0,110.4,13.37,11.40,142.2
"2009-06-08 00:40:00",956546,2.588,178.4,1.017,0.125,9.72,104.4307,10.62,11.6,48.86,0,110.4,13.37,11.40,140.4
"2009-06-08 00:40:30",956547,2.435,176.9,1.184,0.088,10.21,104.4592,10.69,11.62,47.34,0,110.4,13.36,11.48,138.9
"2009-06-08 00:41:00",956548,2.275,172.9,1.482,0.103,10.49,104.4657,10.71,11.72,46.39,0,110.4,13.36,11.49,134.9
"2009-06-08 00:41:30",956549,3.315,179.8,6.346,1.292,12.39,104.4913,10.77,11.75,45.68,0,110.4,13.32,11.56,141.8
"2009-06-08 00:42:00",956550,2.203,174.7,2.304,0.137,10.7,104.4986,10.79,11.82,45.13,0,110.4,13.36,11.58,136.7
"2009-06-08 00:42:30",956551,2.441,172,5.023,0.742,10.82,104.5277,10.86,11.87,44.79,0,110.4,13.32,11.65,134.0
"2009-06-08 00:43:00",956552,3.571,179.9,8.18,1.327,11.68,104.5375,10.89,11.81,44.44,0,110.4,13.32,11.68,141.9
"2009-06-08 00:43:30",956553,2.628,179.1,1.848,0.112,10.03,104.5632,10.95,11.93,44.25,0,110.4,13.36,11.74,141.1
"2009-06-08 00:44:00",956554,4.158,186.6,7.133,1.336,12.64,104.5683,10.97,11.95,44,0,110.4,13.32,11.76,148.6
"2009-06-08 00:44:30",956555,2.925,181.1,0.903,0.157,9.88,104.5981,11.04,11.9,43.7,0,110.4,13.35,11.83,143.1
"2009-06-08 00:45:00",956556,3.289,181.4,2.949,0.128,9.67,104.6015,11.05,11.98,43.42,0,110.4,13.35,11.84,143.4
"2009-06-08 00:45:30",956557,4.668,187.6,7.129,1.324,11.26,104.6311,11.13,12.03,43.27,0,110.4,13.31,11.92,149.6
"2009-06-08 00:46:00",956558,4.137,182.9,5.708,0.935,10.32,104.6336,11.13,12.18,43.13,0,110.4,13.32,11.93,144.9
"2009-06-08 00:46:30",956559,4.168,178.3,0.889,0.149,9.4,104.6621,11.21,12.06,42.64,0,110.4,13.36,12.00,140.3
"2009-06-08 00:47:00",956560,5.578,184.9,6.765,1.314,11.17,104.6633,11.21,12.13,42.48,0,110.4,13.32,12.00,146.9
"2009-06-08 00:47:30",956561,5.133,185.7,6.722,1.097,11,104.6867,11.27,12.27,42.5,0,110.4,13.32,12.06,147.7
"2009-06-08 00:48:00",956562,6.419,197.4,6.285,1.291,12.88,104.6957,11.29,12.32,42.35,0,110.4,13.32,12.09,159.4
"2009-06-08 00:48:30",956563,4.501,190.4,0.89,0.091,9.9,104.697,11.3,12.25,42.13,0,110.4,13.36,12.09,152.4
"2009-06-08 00:49:00",956564,4.507,192.3,3.699,0.796,10.11,104.7249,11.37,12.22,41.89,0,110.4,13.32,12.16,154.3
"2009-06-08 00:49:30",956565,5.304,196.6,7.48,1.366,12.61,104.726,11.37,12.44,41.92,0,110.4,13.32,12.16,158.6
"2009-06-08 00:50:00",956566,4.109,188.5,3.511,0.906,10.39,104.7242,11.37,12.3,41.71,0,110.4,13.32,12.16,150.5
"2009-06-08 00:50:30",956567,3.855,187.3,0.78,0.069,10.14,104.7499,11.43,12.31,41.55,0,110.4,13.35,12.22,149.3
"2009-06-08 00:51:00",956568,3.826,186.3,3.731,0.5,10.33,104.758,11.45,12.38,41.5,0,110.4,13.32,12.25,148.3
"2009-06-08 00:51:30",956569,4.662,189,8.1,1.413,11.95,104.7571,11.45,12.39,41.34,0,110.4,13.31,12.24,151.0
"2009-06-08 00:52:00",956570,3.877,179.8,5.282,0.927,11.38,104.7583,11.45,12.55,41.28,0,110.4,13.32,12.25,141.8
"2009-06-08 00:52:30",956571,4.327,179.5,5.958,1.246,11.91,104.7778,11.5,12.55,41.15,0,110.4,13.31,12.30,141.5
"2009-06-08 00:53:00",956572,3.825,175.3,6.546,1.253,11.59,104.7895,11.53,12.57,41.08,0,110.4,13.31,12.33,137.3
"2009-06-08 00:53:30",956573,3.803,176,6.465,1.244,11.85,104.7901,11.54,12.6,41.01,0,110.4,13.31,12.33,138.0
"2009-06-08 00:54:00",956574,2.504,168.1,1.556,0.068,9.26,104.7898,11.53,12.48,40.68,0,110.4,13.35,12.33,130.1
"2009-06-08 00:54:30",956575,2.673,173.2,1.28,0.056,9.37,104.7871,11.53,12.49,40.5,0,110.4,13.35,12.32,135.2
"2009-06-08 00:55:00",956576,2.292,178.9,2.933,0.129,9.54,104.7859,11.52,12.51,40.52,0,110.4,13.35,12.32,140.9
"2009-06-08 00:55:30",956577,2.499,187.2,3.63,0.71,10.02,104.7897,11.53,12.55,41.6,0,110.4,13.31,12.33,149.2
"2009-06-08 00:56:00",956578,3.953,200.6,7.084,1.386,12.78,104.8004,11.56,12.68,41.5,0,110.4,13.31,12.35,162.6
"2009-06-08 00:56:30",956579,2.799,197.8,1.867,0.086,10.04,104.8074,11.58,12.54,41.41,0,110.4,13.35,12.37,159.8
"2009-06-08 00:57:00",956580,2.953,199.8,2.776,0.142,9.75,104.8132,11.59,12.54,42.29,0,110.4,13.35,12.39,161.8
"2009-06-08 00:57:30",956581,3.579,194.7,4.814,1.256,11.58,104.8138,11.6,12.76,44.24,0,110.4,13.31,12.39,156.7
"2009-06-08 00:58:00",956582,5.584,192.6,5.954,1.114,14.29,104.8144,11.6,12.82,42.74,0,110.4,13.31,12.39,154.6
"2009-06-08 00:58:30",956583,4.433,181,7.328,1.334,11.5,104.8135,11.6,12.66,41.12,0,110.4,13.31,12.39,143.0
"2009-06-08 00:59:00",956584,4.35,179.4,6.68,1.339,11.37,104.8144,11.6,12.73,40.64,0,110.4,13.3,12.39,141.4
"2009-06-08 00:59:30",956585,3.184,174.7,0.813,0.154,9.34,104.8174,11.61,12.61,40.27,0,110.4,13.34,12.40,136.7
"2009-06-08 01:00:00",956586,2.78,173.5,0.804,0.076,9.63,104.8165,11.6,12.61,40.08,0,110.4,13.34,12.40,135.5
"2009-06-08 01:00:30",956587,2.575,174.7,0.972,0.079,9.74,104.8177,11.61,12.62,39.44,0,110.4,13.34,12.40,136.7
"2009-06-08 01:01:00",956588,2.592,180.3,1.871,0.132,10.07,104.8174,11.61,12.62,39.36,0,110.4,13.34,12.40,142.3
"2009-06-08 01:01:30",956589,2.965,188.8,5.446,0.917,10.4,104.8156,11.6,12.61,39.92,0,110.4,13.3,12.39,150.8
"2009-06-08 01:02:00",956590,3.613,200.1,7.092,1.241,12.76,104.8141,11.6,12.79,42.38,0,110.4,13.31,12.39,162.1
"2009-06-08 01:02:30",956591,3.053,187.4,3.433,0.812,10.59,104.8149,11.6,12.63,43.08,0,110.4,13.31,12.39,149.4
"2009-06-08 01:03:00",956592,3.695,187.2,5.592,1.111,12.12,104.8172,11.6,12.78,41.22,0,110.4,13.31,12.40,149.2
"2009-06-08 01:03:30",956593,3.4,179,6.226,0.988,11.15,104.8203,11.61,12.76,40.11,0,110.4,13.31,12.41,141.0
"2009-06-08 01:04:00",956594,3.972,170.8,7.351,1.366,12.84,104.8225,11.62,12.83,39.15,0,110.4,13.31,12.41,132.8
"2009-06-08 01:04:30",956595,4.308,160.6,7.203,1.366,12.76,104.8319,11.64,12.74,38.46,0,110.4,13.31,12.43,122.6
"2009-06-08 01:05:00",956596,3.256,149.2,6.796,1.106,10.84,104.8385,11.66,12.74,38.17,0,110.4,13.31,12.45,111.2
"2009-06-08 01:05:30",956597,2.946,147.2,1.782,0.136,10.06,104.845,11.68,12.67,37.91,0,110.4,13.34,12.47,109.2
"2009-06-08 01:06:00",956598,2.913,148.1,1.035,0.055,9.96,104.8465,11.68,12.68,37.8,0,110.4,13.34,12.47,110.1
"2009-06-08 01:06:30",956599,3.021,152.2,2.9,0.121,10.25,104.845,11.68,12.66,37.78,0,110.4,13.34,12.47,114.2
"2009-06-08 01:07:00",956600,3.348,160.5,2.535,0.087,10.44,104.8473,11.68,12.7,38.21,0,110.4,13.34,12.47,122.5
"2009-06-08 01:07:30",956601,3.523,169.3,3.209,0.044,10.63,104.8464,11.68,12.7,38.48,0,110.4,13.34,12.47,131.3
"2009-06-08 01:08:00",956602,4.823,186.6,7.664,1.355,13.19,104.8532,11.7,12.88,38.91,0,110.4,13.31,12.49,148.6
"2009-06-08 01:08:30",956603,4.485,192,9.12,1.3,13.35,104.8642,11.72,12.83,39.06,0,110.4,13.31,12.52,154.0
"2009-06-08 01:09:00",956604,5.237,197.5,6.587,1.336,13.48,104.8739,11.75,12.93,39.3,0,110.4,13.31,12.54,159.5
"2009-06-08 01:09:30",956605,5.003,190.6,7.469,1.341,12.27,104.8798,11.76,12.83,39.34,0,110.4,13.31,12.56,152.6
"2009-06-08 01:10:00",956606,3.738,179.5,2.455,0.511,9.84,104.8829,11.77,12.75,39.02,0,110.5,13.31,12.57,141.5
"2009-06-08 01:10:30",956607,4.313,170.9,8.61,1.228,12.67,104.8853,11.78,12.92,38.65,0,110.4,13.31,12.57,132.9
"2009-06-08 01:11:00",956608,2.311,144.1,3.482,0.229,10.57,104.8837,11.77,12.76,37.48,0,110.4,13.34,12.57,106.1
"2009-06-08 01:11:30",956609,1.803,136.8,1.041,0.078,10.99,104.8866,11.78,12.75,37.19,0,110.4,13.34,12.58,98.8
"2009-06-08 01:12:00",956610,1.609,136.2,1.239,0.084,11.27,104.8867,11.78,12.77,37.26,0,110.4,13.34,12.58,98.2
"2009-06-08 01:12:30",956611,1.418,136.7,0.784,0.08,11.51,104.8915,11.79,12.76,37.26,0,110.4,13.34,12.59,98.7
"2009-06-08 01:13:00",956612,1.291,134.4,1.756,0.062,11.64,104.8904,11.79,12.77,37.27,0,110.4,13.34,12.59,96.4
"2009-06-08 01:13:30",956613,1.172,131.3,2.062,0.031,12.2,104.8948,11.8,12.78,37.23,0,110.4,13.35,12.60,93.3
"2009-06-08 01:14:00",956614,1.803,139,5.067,1.061,13.06,104.8929,11.8,12.77,37.2,0,110.4,13.31,12.59,101.0
"2009-06-08 01:14:30",956615,1.849,142.4,6.306,1.037,13.85,104.8954,11.8,12.89,37.28,0,110.4,13.31,12.60,104.4
"2009-06-08 01:15:00",956616,3.199,149.4,7.073,1.348,15.82,104.8929,11.8,13.03,37.4,0,110.4,13.31,12.59,111.4
"2009-06-08 01:15:30",956617,3.411,151.9,6.299,1.28,14.76,104.8932,11.8,12.88,37.24,0,110.4,13.31,12.59,113.9
"2009-06-08 01:16:00",956618,1.97,146.2,1.137,0.038,11.65,104.894,11.8,12.8,37.08,0,110.4,13.34,12.59,108.2
"2009-06-08 01:16:30",956619,1.918,149.7,1.956,0.034,11.28,104.8923,11.8,12.76,36.92,0,110.4,13.34,12.59,111.7
"2009-06-08 01:17:00",956620,2.028,153.7,4.409,0.256,12.02,104.8946,11.8,12.9,37.11,0,110.4,13.34,12.60,115.7
"2009-06-08 01:17:30",956621,2.982,159.1,7.124,1.388,13.26,104.8943,11.8,12.83,36.93,0,110.4,13.31,12.60,121.1
"2009-06-08 01:18:00",956622,1.536,153.7,1,0.096,11,104.8938,11.8,12.78,36.9,0,110.4,13.34,12.59,115.7
"2009-06-08 01:18:30",956623,1.162,156.9,1.072,0.17,11.07,104.8943,11.8,12.79,36.62,0,110.4,13.34,12.60,118.9
"2009-06-08 01:19:00",956624,0.928,164.9,4.609,0.052,11.2,104.8974,11.81,12.79,36.63,0,110.4,13.34,12.60,126.9
"2009-06-08 01:19:30",956625,0.902,178.1,4.654,0.193,11.41,104.8994,11.81,12.79,36.42,0,110.4,13.35,12.61,140.1
"2009-06-08 01:20:00",956626,1.207,181.2,2.878,0.136,11.52,104.9028,11.82,12.79,35.98,0,110.4,13.35,12.62,143.2
"2009-06-08 01:20:30",956627,1.616,184.2,3.702,0.155,11.9,104.9036,11.83,12.79,35.93,0,110.4,13.36,12.62,146.2
"2009-06-08 01:21:00",956628,1.825,190.2,2.763,0.246,12.2,104.9036,11.83,12.8,36.14,0,110.4,13.36,12.62,152.2
"2009-06-08 01:21:30",956629,3.838,192.7,5.872,1.41,15.04,104.9036,11.83,13.06,36.7,0,110.4,13.32,12.62,154.7
"2009-06-08 01:22:00",956630,4.741,202,5.506,1.068,16.59,104.9033,11.82,13.07,36.62,0,110.4,13.32,12.62,164.0
"2009-06-08 01:22:30",956631,3.095,197.1,7.033,1.432,13.36,104.9036,11.83,12.9,36.5,0,110.4,13.32,12.62,159.1
"2009-06-08 01:23:00",956632,1.705,197.7,1.733,0.028,11.01,104.9033,11.82,12.82,36.58,0,110.4,13.36,12.62,159.7
"2009-06-08 01:23:30",956633,1.751,186.9,4.215,0.092,10.9,104.9036,11.83,12.81,36.66,0,110.4,13.36,12.62,148.9
"2009-06-08 01:24:00",956634,2.288,179.8,1.853,0.212,11,104.9036,11.83,12.81,36.58,0,110.4,13.36,12.62,141.8
"2009-06-08 01:24:30",956635,3.858,193.4,4.505,1.372,13.35,104.9036,11.83,12.86,36.39,0,110.4,13.32,12.62,155.4
"2009-06-08 01:25:00",956636,3.31,198.5,7.112,1.124,13.02,104.9036,11.83,13.01,36.46,0,110.4,13.32,12.62,160.5
"2009-06-08 01:25:30",956637,2.918,200.3,5.862,0.164,11.6,104.9036,11.83,12.82,36.21,0,110.4,13.36,12.62,162.3
"2009-06-08 01:26:00",956638,2.332,210.1,2.489,0.188,11.71,104.9039,11.83,12.83,36.38,0,110.4,13.36,12.62,172.1
"2009-06-08 01:26:30",956639,2.421,208.8,2.413,0.138,11.92,104.9039,11.83,12.84,36.55,0,110.4,13.36,12.62,170.8
"2009-06-08 01:27:00",956640,3.001,203.4,8.37,1.319,14.27,104.9048,11.83,12.99,36.56,0,110.4,13.32,12.62,165.4
"2009-06-08 01:27:30",956641,2.898,205.6,7.403,1.047,13.28,104.9069,11.83,12.99,36.58,0,110.4,13.32,12.63,167.6
"2009-06-08 01:28:00",956642,3.15,216.9,7.314,1.049,14,104.906,11.83,13.05,36.53,0,110.3,13.32,12.63,178.9
"2009-06-08 01:28:30",956643,3.91,226.1,6.68,1.335,14.49,104.9128,11.85,12.91,36.22,0,110.4,13.32,12.64,188.1
"2009-06-08 01:29:00",956644,3.573,228,6.205,1.23,14.29,104.9145,11.85,13.05,36.12,0,110.3,13.32,12.65,190.0
"2009-06-08 01:29:30",956645,2.305,224.5,1.636,0.281,11.61,104.9292,11.89,12.88,35.96,0,110.3,13.32,12.68,186.5
"2009-06-08 01:30:00",956646,2.082,227,1.481,0.077,11.38,104.9409,11.92,12.89,36.01,0,110.3,13.36,12.71,189.0
"2009-06-08 01:30:30",956647,2.515,234.6,7.719,1.126,12.61,104.9473,11.94,12.9,35.77,0,110.3,13.32,12.73,196.6
"2009-06-08 01:31:00",956648,1.787,231.9,5.744,0.83,12.25,104.9614,11.97,13.07,35.43,0,110.3,13.32,12.77,193.9
"2009-06-08 01:31:30",956649,2.373,237.7,7.143,1.322,12.97,104.9663,11.99,12.93,34.99,0,110.3,13.32,12.78,199.7
"2009-06-08 01:32:00",956650,1.228,233.5,2.766,0.117,11.42,104.9953,12.06,12.95,34.87,0,110.3,13.36,12.85,195.5
"2009-06-08 01:32:30",956651,1.156,220.4,4.86,0.072,11.38,105.0008,12.07,12.96,34.85,0,110.3,13.36,12.87,182.4
"2009-06-08 01:33:00",956652,1.691,220.1,2.912,0.269,11.35,105.0041,12.08,12.98,34.72,0,110.3,13.36,12.88,182.1
"2009-06-08 01:33:30",956653,3.574,235.6,8.38,1.472,13.47,105.0065,12.09,13.13,35.07,0,110.3,13.32,12.88,197.6
"2009-06-08 01:34:00",956654,4.704,243.1,7.897,1.649,13.29,105.0065,12.09,13.16,35.98,0,110.3,13.32,12.88,205.1
"2009-06-08 01:34:30",956655,5.77,254.1,9.6,1.454,12.98,105.0065,12.09,13.18,38.26,0,110.3,13.32,12.88,216.1
"2009-06-08 01:35:00",956656,6.333,258.5,6.059,1.096,12,105.0068,12.09,13.12,42.16,0,110.3,13.32,12.88,220.5
"2009-06-08 01:35:30",956657,7.355,262.1,7.671,1.279,12.83,105.0031,12.08,13.24,45.03,0,110.3,13.32,12.87,224.1
"2009-06-08 01:36:00",956658,7.665,263.7,6.762,1.343,12.36,104.9766,12.01,13.15,46.9,0,110.3,13.32,12.81,225.7
"2009-06-08 01:36:30",956659,6.143,256.5,1.968,0.194,9.88,104.9712,12,13.01,47.65,0,110.3,13.36,12.79,218.5
"2009-06-08 01:37:00",956660,5.774,249.7,4.237,0.904,11.38,104.9422,11.92,13.12,45,0,110.3,13.33,12.72,211.7
"2009-06-08 01:37:30",956661,5.659,241.4,6.794,1.219,11.76,104.9244,11.88,13.05,41.8,0,110.3,13.33,12.67,203.4
"2009-06-08 01:38:00",956662,5.847,242.7,6.402,1.305,12.22,104.9053,11.83,12.99,41.14,0,110.3,13.33,12.62,204.7
"2009-06-08 01:38:30",956663,6.685,252.9,6.983,1.32,13.64,104.8802,11.77,13.07,41.91,0,110.3,13.33,12.56,214.9
"2009-06-08 01:39:00",956664,6.409,259.9,9.97,1.407,12.11,104.8703,11.74,13.03,45.15,0,110.3,13.33,12.53,221.9
"2009-06-08 01:39:30",956665,6.836,267.8,6.953,1.149,11.6,104.8466,11.68,12.99,49.52,0,110.3,13.33,12.47,229.8
"2009-06-08 01:40:00",956666,7.739,273.1,5.053,0.978,11,104.8314,11.64,12.79,51.82,0,110.3,13.33,12.43,235.1
"2009-06-08 01:40:30",956667,8.53,278.2,7.233,1.385,12.02,104.8038,11.57,12.89,52.56,0,110.3,13.33,12.36,240.2
"2009-06-08 01:41:00",956668,9.47,285.1,6.611,1.28,13.15,104.7784,11.51,12.83,52.71,0,110.3,13.33,12.30,247.1
"2009-06-08 01:41:30",956669,9.85,287.2,6.773,1.26,13.51,104.7522,11.44,12.81,53.05,0,110.3,13.33,12.23,249.2
"2009-06-08 01:42:00",956670,9.7,285.9,6.72,1.339,13.33,104.7234,11.36,12.85,53.12,0,110.3,13.33,12.16,247.9
"2009-06-08 01:42:30",956671,10.12,282.9,7.308,1.292,13.53,104.6927,11.29,12.76,52.45,0,110.3,13.33,12.08,244.9
"2009-06-08 01:43:00",956672,9.25,277.4,6.438,1.022,11.87,104.6631,11.21,12.66,52.22,0,110.3,13.33,12.00,239.4
"2009-06-08 01:43:30",956673,9.37,276.9,5.309,0.837,10.74,104.6332,11.13,12.46,53.31,0,110.3,13.33,11.92,238.9
"2009-06-08 01:44:00",956674,10.93,283.6,6.747,1.291,13.48,104.6028,11.06,12.55,54.15,0,110.3,13.33,11.85,245.6
"2009-06-08 01:44:30",956675,11.37,282.9,6.544,1.284,13.82,104.5788,10.99,12.55,54.4,0,110.2,13.33,11.79,244.9
"2009-06-08 01:45:00",956676,12.45,285.2,5.48,1.169,14.22,104.5551,10.93,12.46,54.09,0,110.3,13.33,11.72,247.2
"2009-06-08 01:45:30",956677,12.43,283.2,6.831,1.304,13.86,104.5326,10.88,12.45,54.46,0,110.3,13.33,11.67,245.2
"2009-06-08 01:46:00",956678,12.29,281.8,6.777,1.311,13.18,104.5056,10.81,12.37,54.98,0,110.3,13.33,11.60,243.8
"2009-06-08 01:46:30",956679,12.52,278.3,7.561,1.254,11.93,104.4891,10.77,12.08,55.46,0,110.3,13.33,11.55,240.3
"2009-06-08 01:47:00",956680,11.95,272,5.706,1.141,11.88,104.4714,10.72,12.2,55.9,0,110.3,13.33,11.51,234.0
"2009-06-08 01:47:30",956681,12.88,275.4,6.301,1.158,13.88,104.4495,10.66,12.13,56.35,0,110.3,13.33,11.45,237.4
"2009-06-08 01:48:00",956682,12.24,271.3,7.148,1.322,13.28,104.4414,10.64,12.19,56.51,0,110.3,13.34,11.43,233.3